Regional Weather Roundup
Issued by NWS

Home | Current Version | Previous Version | Text Only | Print | Product List | Glossary Off
Versions: 1 2 3 4 5 6 7 8 9 10 11 12 13 14 15 16 17 18 19 20 21 22 23 24 25 26 27 28 29 30 31 32 33 34 35 36 37 38 39 40 41 42 43 44 45 46 47 48 49 50

000
ASUS43 KBIS 010520
RWRND

NORTH DAKOTA REGIONAL WEATHER ROUNDUP
NATIONAL WEATHER SERVICE BISMARCK ND
1100 PM CST SAT JAN 31 2015

NOTE: "FAIR" INDICATES FEW OR NO CLOUDS BELOW 12,000 FEET WITH NO
SIGNIFICANT WEATHER AND/OR OBSTRUCTIONS TO VISIBILITY.


NDZ001>003-009>011-017-010600-
NORTHWEST NORTH DAKOTA

CITY           SKY/WX    TMP DP  RH WIND       PRES   REMARKS
WILLISTON      PTCLDY    -3 -11  68 NE9       30.46S WCI -19
MINOT          CLOUDY    -8 -18  61 N12       30.48R WCI -27
MINOT AFB      MOCLDY    -8 -16  67 N10       30.49S WCI -26
$$

NDZ018>021-031>035-040>046-010600-
SOUTHWEST NORTH DAKOTA

CITY           SKY/WX    TMP DP  RH WIND       PRES   REMARKS
BISMARCK       LGT SNOW  -3 -10  72 NE14      30.43R WCI -22
DICKINSON      LGT SNOW  -1  -7  75 NE15      30.31R WCI -21
GARRISON         N/A     -3  -9  75 N12       30.42R WCI -21
HETTINGER ARPT LGT SNOW   2  -3  80 NE13      30.28R WCI -15
$$

NDZ004>008-012>016-024-026-027-054-010600-
NORTHEAST NORTH DAKOTA

CITY           SKY/WX    TMP DP  RH WIND       PRES   REMARKS
GRAND FORKS    PTCLDY    -8 -16  67 N12       30.54R WCI -27
GRND FRKS AFB  PTCLDY    -9 -18  63 N17       30.53R WCI -32
DEVILS LAKE    PTCLDY    -9 -20  59 NE10      30.47R WCI -28
$$

NDZ022-023-025-028>030-036>039-047>053-010600-
SOUTHEAST NORTH DAKOTA

CITY           SKY/WX    TMP DP  RH WIND       PRES   REMARKS
FARGO          PTCLDY    -1 -10  65 N21       30.42R WCI -24
JAMESTOWN      CLOUDY    -4 -13  65 N20       30.40R WCI -27
$$




USA.gov is the U.S. government's official web portal to all federal, state and local government web resources and services.